RH
66 54 64 50 41 45 43 36 28 28 28 29 31 28 28 36 34 44 69 80 84 89 88 87 82 77 77 81 83 83 82 80 78 79 76 74 75 75 76 77 76 78 74 74 76 76 76 80 81
54 41 52 54 53 51 42 37 24 25 26 28 29 29 32 30 52 64 79 77 81 85 85 89 84 77 75 76 78 75 72 69 65 69 73 73 72 76 77 74 74 72 72 77 78 75 74 75 78
44 39 49 52 60 49 37 25 22 31 28 26 30 31 30 33 52 60 57 70 82 85 85 86 84 78 77 77 77 73 70 71 71 69 70 71 70 71 68 64 62 61 65 68 65 62 61 61 64
40 38 37 43 49 37 24 20 30 28 29 28 29 28 36 41 47 55 60 75 82 85 86 85 79 77 76 76 76 75 74 72 70 68 68 65 64 60 58 58 57 56 58 57 57 57 58 57 56
42 47 48 53 38 26 19 22 29 27 29 27 26 27 32 37 50 55 66 73 83 91 91 88 79 73 71 71 72 70 71 65 62 62 62 59 58 58 57 56 55 55 56 56 56 56 55 53 53
40 40 42 49 38 29 20 25 27 26 29 30 30 34 28 46 51 63 70 81 82 90 89 87 82 77 71 67 64 63 65 63 60 58 58 57 57 57 56 55 54 54 53 53 54 52 51 52 53
46 52 55 52 40 31 21 20 24 24 28 25 28 27 39 49 45 52 67 81 86 86 87 88 88 83 78 73 69 64 62 61 60 58 57 56 55 54 55 54 52 52 51 52 52 52 49 49 51
42 38 55 43 32 27 23 21 22 21 21 28 23 25 26 41 40 42 54 77 89 87 86 88 87 84 84 86 76 72 67 62 60 58 57 58 56 52 56 56 51 50 50 50 49 48 48 48 50
40 35 42 32 32 24 24 23 24 24 25 27 24 27 29 42 38 37 39 53 81 80 80 86 86 83 80 79 81 78 71 67 64 63 65 65 62 62 60 56 51 49 47 47 47 47 47 49 54
43 47 32 27 38 24 23 22 22 25 24 24 25 30 42 42 34 33 35 37 66 74 76 76 80 79 77 62 84 84 73 75 69 65 68 59 54 61 64 66 53 50 48 46 47 46 48 53 58
42 37 34 27 24 24 23 25 22 25 25 23 21 22 39 42 37 33 31 30 37 52 59 67 67 69 68 63 84 82 78 78 73 61 63 61 59 69 67 70 68 65 56 58 56 56 57 52 57
41 33 27 29 29 27 25 26 24 25 16 20 21 24 39 38 38 35 33 29 28 38 44 52 54 60 63 64 73 71 71 74 76 67 64 65 69 66 67 70 68 64 64 59 62 65 56 54 53
39 36 30 30 31 31 28 26 26 27 23 23 22 26 34 35 33 32 31 31 30 32 36 43 47 47 51 54 68 68 70 72 72 66 67 69 67 67 66 67 66 61 58 58 58 58 56 56 55
33 33 32 32 29 29 28 31 30 20 27 27 27 25 29 33 32 33 37 32 32 28 30 35 43 41 44 47 57 58 66 71 71 64 66 64 65 65 65 67 64 60 58 59 59 56 58 58 59
34 30 31 26 28 26 34 33 35 20 29 25 26 28 28 29 30 30 27 28 30 30 29 33 38 41 41 42 52 58 65 65 69 62 60 62 58 59 63 68 65 61 60 57 56 57 57 56 54
37 49 38 24 33 31 25 28 23 24 29 26 26 28 28 28 29 26 25 26 29 31 33 32 28 38 40 39 48 53 59 64 67 61 60 58 56 56 62 65 63 63 60 59 58 59 55 58 60
45 36 40 32 30 35 33 32 26 28 29 27 24 26 27 25 27 27 28 28 30 30 32 33 31 36 41 45 48 57 58 62 63 61 59 55 56 56 60 64 62 61 62 62 55 59 57 57 59
40 46 39 30 29 40 41 36 25 24 26 26 24 26 26 25 23 20 28 30 29 30 32 31 31 35 42 48 59 62 61 66 63 59 57 54 56 57 60 64 63 64 65 65 60 54 63 63 64
31 34 35 26 20 36 37 32 27 22 26 33 28 23 20 19 16 22 30 30 34 35 34 33 33 38 41 49 53 54 50 57 65 64 57 52 54 56 59 64 62 64 62 61 54 61 61 69 67
36 32 30 25 26 34 28 26 21 25 21 19 20 21 23 22 19 28 29 37 37 35 35 33 32 38 36 38 40 48 48 58 50 58 55 48 54 57 56 60 62 62 63 62 62 62 69 74 70
37 38 32 32 31 36 37 30 33 28 26 22 27 24 22 20 18 25 30 38 41 39 36 33 33 36 34 37 47 59 59 58 58 57 55 51 54 60 61 58 64 63 64 67 65 66 60 68 72
30 32 32 38 44 34 44 32 27 25 25 25 25 24 24 22 23 25 33 45 43 38 35 33 34 35 34 39 43 46 39 42 44 42 52 57 54 57 62 61 62 64 69 68 70 66 70 67 64
30 32 34 44 53 59 59 54 31 28 28 24 18 18 18 16 23 28 35 36 41 40 37 34 36 36 37 41 38 41 40 40 56 58 53 51 58 57 62 63 62 65 71 67 68 70 70 68 72
38 40 46 62 53 50 40 38 32 32 25 23 19 16 17 15 22 27 36 44 47 42 39 37 39 40 43 40 39 38 38 48 53 53 50 53 54 59 63 62 64 66 68 68 68 68 69 72 70
42 43 62 62 78 57 36 50 20 22 17 20 16 16 16 17 28 34 40 46 44 40 41 40 41 40 44 43 38 38 37 42 40 49 46 51 54 56 56 60 64 65 67 67 69 68 66 66 66
42 34 52 64 50 31 63 48 29 25 20 22 22 22 24 24 31 34 39 42 42 40 42 38 42 40 42 42 39 39 37 40 38 46 46 47 46 47 51 56 62 65 64 67 64 65 66 66 66
45 52 34 63 81 77 31 29 22 30 23 24 24 25 26 27 34 37 42 44 47 44 40 38 41 40 42 41 41 42 39 38 37 44 47 48 49 50 58 57 59 62 63 62 63 65 64 66 67
40 40 59 67 69 68 41 35 27 26 23 25 23 22 25 30 44 44 41 42 48 46 42 40 39 38 42 44 42 43 43 41 38 49 49 50 55 53 57 56 57 59 60 62 64 66 68 69 72
47 46 45 50 69 49 49 37 28 25 30 26 22 20 29 31 39 42 42 44 45 48 50 46 43 44 47 46 43 47 50 46 44 47 49 54 52 51 51 51 53 56 59 61 64 68 71 75 77
39 35 33 44 56 63 66 47 30 26 26 26 22 20 22 32 34 38 41 47 48 47 50 46 43 45 43 43 44 49 49 49 48 46 48 53 49 49 48 49 50 54 57 62 62 74 75 77 71
Wind_Speed
5 4 2 5 5 5 5 6 2 2 1 2 1 3 7 2 6 6 1 7 11 9 7 7 10 12 11 9 12 12 11 13 13 13 11 11 9 10 11 10 10 12 11 11 12 12 9 11 12
3 1 5 3 5 2 6 6 5 5 4 5 2 4 1 5 3 5 6 9 11 9 7 7 11 13 11 9 9 9 8 8 7 9 9 8 9 10 12 10 10 9 8 11 12 10 10 11 12
2 3 4 4 3 4 5 5 6 2 2 4 2 1 5 4 3 10 6 11 10 7 6 6 11 14 13 11 10 9 9 9 9 9 11 11 10 11 11 11 11 10 10 11 10 10 11 11 11
3 5 5 4 6 8 6 5 5 5 2 1 3 3 3 3 7 9 10 12 11 7 7 8 13 14 14 15 15 14 14 13 12 12 13 12 12 11 11 11 11 11 11 10 10 11 11 11 11
4 3 3 1 6 6 6 3 9 6 3 4 4 4 4 3 1 10 14 11 13 7 6 7 12 14 15 15 16 16 16 15 15 14 14 13 12 11 11 11 11 11 11 11 10 10 11 10 11
4 4 3 3 6 5 4 6 5 5 3 2 3 2 5 1 8 9 9 9 9 10 7 6 9 12 14 16 16 16 15 15 14 14 14 14 13 12 11 11 11 10 10 10 11 11 11 11 12
5 4 4 4 5 6 5 8 5 6 5 6 2 6 3 3 7 8 9 8 8 8 7 6 6 7 10 12 13 14 15 15 14 14 14 14 13 11 10 10 10 10 10 11 11 12 12 11 12
5 4 3 4 3 6 2 3 1 7 9 1 8 7 7 7 10 7 6 7 7 7 7 7 6 5 5 5 10 12 14 15 15 15 14 13 13 11 11 7 9 10 11 11 12 12 11 11 12
3 4 3 6 3 5 0 3 2 1 1 3 7 5 2 6 10 7 6 5 6 7 9 8 8 7 6 5 5 10 14 14 14 13 10 9 5 6 6 8 10 10 11 10 11 11 11 10 11
4 4 9 6 2 4 3 6 4 2 5 5 6 2 4 9 13 13 11 13 13 13 11 11 9 8 7 6 6 6 6 5 6 6 6 5 5 5 5 6 10 10 9 9 10 10 10 8 4
5 7 6 7 5 4 4 3 6 6 9 9 11 10 9 9 12 15 16 15 21 15 9 13 11 10 9 7 4 3 3 3 4 6 6 5 4 4 4 3 3 3 6 3 5 5 4 5 4
3 9 7 6 4 3 4 2 5 10 20 8 14 5 10 14 17 18 17 17 14 14 15 13 12 11 9 5 6 5 4 4 4 5 6 4 3 4 4 3 4 4 2 3 3 2 4 5 5
7 6 7 7 8 6 4 11 8 14 15 9 9 8 13 16 18 16 15 11 10 12 15 15 14 13 11 9 6 5 5 5 5 4 5 5 5 5 4 4 4 3 3 2 2 3 3 4 5
2 5 7 7 10 7 7 8 6 21 5 12 11 16 12 16 21 13 10 17 15 15 15 14 16 13 12 10 10 7 5 5 5 5 5 6 5 5 5 5 4 3 3 2 3 3 4 4 4
3 8 7 10 6 9 7 9 13 25 2 12 12 12 11 19 12 22 23 21 20 17 14 17 17 14 15 13 10 7 7 6 6 5 6 7 6 6 6 5 4 4 4 4 3 3 3 4 4
2 1 5 2 7 5 9 15 14 14 7 17 15 12 11 16 19 22 18 17 14 13 18 17 16 17 16 14 10 8 7 7 6 5 5 8 7 7 6 5 4 4 3 3 3 3 3 4 4
2 7 9 13 11 5 7 12 13 6 9 13 14 12 13 16 13 17 16 16 15 19 17 18 18 19 17 12 10 8 8 7 6 5 5 6 7 7 6 5 5 5 4 3 2 3 2 3 4
9 6 6 8 4 5 7 17 16 12 8 13 13 12 12 15 23 18 13 15 16 16 17 16 15 16 15 10 6 4 6 5 6 6 6 7 6 7 6 5 5 5 4 3 2 3 2 2 2
3 6 8 8 11 6 11 17 19 23 11 11 16 19 21 21 27 11 11 13 12 12 15 17 18 17 15 11 10 7 10 7 5 6 8 9 7 7 7 5 6 5 5 4 3 3 3 3 4
12 18 19 15 15 6 16 23 18 12 19 22 20 21 21 20 21 7 9 9 14 17 17 18 19 20 17 13 10 6 6 3 5 6 7 8 9 7 7 7 6 6 4 4 3 3 3 2 4
16 15 18 19 6 5 9 19 11 14 14 20 15 20 21 26 22 12 9 11 10 15 19 20 20 20 17 14 9 5 5 4 3 5 5 7 7 7 7 7 6 6 5 5 4 4 5 4 1
23 13 13 8 4 13 4 27 6 9 13 11 15 17 18 22 17 14 9 8 12 15 13 16 17 18 15 16 14 13 12 9 7 8 5 5 8 8 8 8 7 6 4 6 5 4 4 5 4
22 5 6 3 4 6 3 7 4 8 8 13 15 15 19 18 14 12 11 13 10 11 14 14 16 16 15 16 16 13 11 7 4 4 9 8 6 7 7 7 7 7 5 5 6 5 6 4 5
2 4 5 5 1 13 11 10 4 6 8 6 10 15 16 18 9 8 5 8 7 8 11 14 16 15 15 16 15 17 17 10 8 9 11 9 7 7 8 8 6 6 6 7 5 5 5 6 5
4 5 4 4 1 14 10 7 18 6 11 12 14 16 14 12 5 7 9 10 11 14 13 12 15 16 16 19 19 20 17 15 16 13 11 12 9 8 11 10 9 6 5 5 6 5 5 7 5
12 12 10 8 10 19 5 12 12 12 12 11 10 13 11 8 8 10 11 11 12 14 14 15 17 16 17 20 20 17 17 11 11 12 10 10 11 10 10 9 8 8 8 7 7 4 3 5 5
2 6 13 2 2 2 10 15 10 4 9 7 10 13 17 10 9 10 7 9 11 11 15 17 16 16 17 17 14 16 14 15 14 12 11 10 8 7 10 11 10 9 9 9 8 5 6 5 4
7 4 2 2 6 8 11 9 16 10 6 7 13 14 15 9 4 2 5 7 6 7 10 11 14 18 13 13 14 13 15 14 12 9 13 11 9 10 12 13 12 10 9 9 8 5 6 7 5
2 5 6 3 4 12 16 16 6 9 1 5 10 10 9 10 7 8 7 7 6 6 8 11 12 12 12 15 16 15 14 14 12 12 12 13 13 14 15 15 14 13 11 9 8 7 7 7 8
7 16 16 11 11 6 4 9 30 28 19 20 18 10 6 8 10 9 8 7 7 9 9 15 15 16 19 16 15 16 14 14 14 14 14 14 15 14 15 15 15 14 12 10 10 10 8 9 8
Wind_Direction
316 337 52 38 42 57 278 270 253 178 165 238 136 152 183 128 164 207 274 145 141 149 150 152 157 161 153 144 139 137 136 133 120 106 91 91 77 79 79 68 50 43 48 58 56 51 37 24 18
327 75 42 79 86 29 270 255 212 213 187 140 129 109 112 218 141 147 130 188 148 148 148 153 164 166 158 141 130 134 132 124 127 118 102 106 113 94 83 76 68 64 58 52 50 45 35 27 19
280 53 83 98 123 198 230 241 217 228 186 189 124 286 160 209 166 174 213 153 141 142 149 158 166 162 157 148 141 139 129 133 142 128 124 113 105 99 94 88 77 67 65 62 52 42 32 25 19
60 12 30 93 234 257 232 240 199 157 304 333 130 234 294 182 165 180 149 140 137 148 149 159 164 157 152 150 145 147 153 138 137 131 122 115 109 100 92 87 82 76 70 62 54 47 37 27 19
36 58 61 303 255 256 253 211 167 179 206 205 160 251 248 253 127 140 151 146 143 147 153 156 165 161 158 153 151 153 148 145 141 136 131 127 117 106 98 92 86 81 74 65 61 52 46 40 34
42 95 67 238 251 260 262 173 174 199 210 164 177 166 247 27 140 167 150 145 147 149 155 161 165 167 164 160 158 157 153 149 148 145 137 130 124 116 111 102 92 92 89 80 72 61 55 47 43
114 94 219 234 256 296 235 153 191 202 184 237 168 169 256 206 207 160 157 139 147 151 149 155 159 165 167 162 160 160 158 155 153 147 138 131 126 120 114 108 101 106 94 84 76 70 55 51 44
111 102 283 257 252 268 267 199 182 168 235 78 162 233 253 219 174 149 142 145 155 163 165 166 162 151 151 157 161 162 161 160 157 152 146 141 133 121 119 101 97 98 85 80 76 70 60 49 41
94 67 242 247 228 265 190 240 258 336 189 222 208 182 292 117 130 136 151 170 177 192 183 175 172 169 168 162 167 162 163 161 161 156 151 129 137 130 113 105 96 89 85 79 75 68 61 57 45
111 144 227 218 222 233 239 205 225 203 235 242 273 261 84 135 161 176 187 193 197 199 197 183 177 176 168 173 168 160 158 153 152 157 154 148 144 139 119 91 90 81 71 72 68 59 52 44 41
188 212 223 263 244 209 230 233 202 198 254 213 214 230 167 174 188 196 205 202 202 200 191 191 181 178 173 175 165 169 161 161 166 167 164 161 148 127 115 97 86 76 59 40 47 39 40 34 32
219 239 228 262 254 287 250 242 232 197 245 200 226 194 167 192 199 204 208 210 197 192 194 185 184 178 180 159 174 175 168 169 173 180 170 151 148 135 130 122 116 94 81 82 69 51 48 40 25
220 246 234 250 276 262 291 246 243 262 246 244 241 200 197 204 213 217 219 220 201 202 197 192 181 182 180 176 171 173 179 176 174 172 176 161 159 152 140 130 124 123 121 126 91 75 55 40 17
245 274 270 265 254 252 210 266 144 266 255 239 238 238 216 211 216 215 211 217 204 204 200 185 188 183 175 180 180 182 169 167 166 174 182 177 159 152 145 137 136 134 146 143 103 78 55 36 16
313 310 310 249 241 233 175 287 224 247 222 275 250 249 236 222 213 218 220 215 204 204 190 189 184 178 180 183 180 173 176 167 174 174 176 171 164 166 146 144 149 162 165 127 120 81 69 48 14
311 359 305 309 140 248 141 263 250 252 209 257 263 260 243 244 223 229 224 219 204 193 190 185 185 183 182 182 176 175 172 168 172 168 172 177 169 156 152 146 157 157 135 138 106 66 57 37 11
270 235 217 304 206 154 181 252 265 233 203 255 263 261 259 266 249 236 217 210 195 197 189 187 184 183 181 173 170 165 164 169 176 167 172 172 168 162 143 150 158 158 140 111 107 70 80 32 352
219 219 246 240 248 191 230 252 270 271 199 240 261 267 262 258 253 248 207 208 203 198 189 184 180 175 169 158 139 138 160 170 169 175 174 171 172 165 154 153 158 150 134 129 112 116 68 52 341
204 224 234 251 267 233 232 245 250 265 271 254 257 259 257 253 261 225 205 203 194 191 182 178 171 172 164 165 166 169 187 182 178 178 177 174 175 170 161 157 154 159 154 164 156 111 91 41 340
240 255 260 268 257 214 266 261 263 255 260 260 258 261 256 256 258 236 213 192 191 191 186 176 178 172 177 174 175 170 162 174 173 177 180 180 178 174 164 160 162 162 145 144 150 149 116 82 10
230 235 251 255 316 246 291 274 258 254 255 264 252 248 260 257 268 251 207 206 188 184 185 180 178 175 176 170 144 102 87 78 133 187 184 191 177 174 167 166 159 162 148 158 177 175 142 133 68
260 222 254 260 303 275 128 292 236 251 247 252 255 258 253 262 258 257 207 196 194 195 178 174 171 173 174 168 171 171 187 182 194 184 175 176 179 181 177 168 161 161 156 162 177 189 143 123 127
253 193 248 226 226 325 200 271 183 212 253 248 251 247 262 263 240 234 211 207 191 166 171 170 166 173 171 173 180 179 191 186 142 138 158 180 184 181 176 171 165 168 167 167 167 172 154 128 131
140 97 53 58 99 265 189 204 339 176 215 268 259 254 247 261 258 225 208 148 150 147 161 166 170 177 169 178 182 188 194 177 165 172 181 183 182 184 183 175 170 169 166 167 171 177 159 129 118
148 107 296 314 54 249 186 209 247 252 241 221 247 248 258 257 214 195 187 172 159 172 168 170 174 182 175 182 189 193 197 188 187 180 185 181 183 189 193 174 171 173 170 164 150 160 171 144 144
213 191 192 204 248 271 113 245 263 225 243 243 278 284 301 288 229 209 203 183 180 180 173 176 184 189 191 191 196 195 192 191 194 188 188 191 195 192 179 179 164 161 159 156 159 167 183 139 138
190 190 236 345 45 14 261 269 285 248 283 301 290 295 273 251 234 226 191 192 173 176 187 185 190 193 197 202 197 197 196 197 199 184 184 184 181 166 164 170 168 166 163 164 163 168 174 154 144
190 180 73 219 198 246 274 265 269 297 277 310 358 331 309 301 320 283 195 212 203 192 192 197 197 203 187 197 201 201 202 197 197 172 179 178 167 158 164 167 167 169 168 164 165 167 170 150 138
186 246 231 198 181 252 258 266 217 219 30 320 309 316 320 303 242 228 222 210 200 186 192 201 207 199 194 195 196 194 201 194 191 183 178 174 165 168 173 170 165 169 172 171 166 169 175 152 133
214 260 239 235 237 215 228 266 287 272 281 290 281 289 322 272 247 226 225 212 203 215 209 209 208 206 210 200 197 202 196 191 188 191 182 169 171 171 170 168 168 170 170 171 173 169 174 155 152